When you browse on this site, cookies collect data to enhance your experience and personalize the content and advertising you see.
Visit our Privacy Policy to learn more. By continuing to use the site, you agree to this use of cookies and data.
  • In Romania
  • List of Countries
  • For 7 days
  • Water Temperature
  • Weather Map
  • Weather Widgets
  • user-avatar
    Login

    Hourly Weather Maskat

    Today, 28 May, Thursday

    Time Temperature Precipitation Wind Pressure Humidity
    00:00 +37°C° 0 mm 3 mps 748 mmHg 33%
    01:00 +36°C° 0 mm 3 mps 748 mmHg 37%
    02:00 +36°C° 0 mm 4 mps 748 mmHg 39%
    03:00 +36°C° 0 mm 4 mps 748 mmHg 41%
    04:00 +36°C° 0 mm 4 mps 748 mmHg 42%
    05:00 +36°C° 0 mm 4 mps 748 mmHg 40%
    06:00 +37°C° 0 mm 4 mps 748 mmHg 38%
    07:00 +38°C° 0 mm 4 mps 748 mmHg 36%
    08:00 +40°C° 0 mm 5 mps 748 mmHg 32%
    09:00 +42°C° 0 mm 5 mps 748 mmHg 28%
    10:00 +45°C° 0 mm 6 mps 748 mmHg 25%
    11:00 +45°C° 0 mm 6 mps 748 mmHg 24%
    12:00 +45°C° 0 mm 6 mps 747 mmHg 23%
    13:00 +45°C° 0 mm 6 mps 747 mmHg 22%
    14:00 +45°C° 0 mm 5 mps 747 mmHg 20%
    15:00 +44°C° 0 mm 4 mps 746 mmHg 19%
    16:00 +44°C° 0 mm 4 mps 746 mmHg 17%
    17:00 +42°C° 0 mm 3 mps 746 mmHg 19%
    18:00 +40°C° 0 mm 2 mps 746 mmHg 21%
    19:00 +37°C° 0 mm 1 mps 746 mmHg 22%
    20:00 +38°C° 0 mm 2 mps 746 mmHg 23%
    21:00 +38°C° 0 mm 3 mps 747 mmHg 25%
    22:00 +38°C° 0 mm 3 mps 747 mmHg 26%
    23:00 +37°C° 0 mm 2 mps 747 mmHg 34%

    Tomorrow, 29 May, Friday

    Time Temperature Precipitation Wind Pressure Humidity
    00:00 +35°C° 0 mm 1 mps 747 mmHg 42%
    01:00 +34°C° 0 mm 1 mps 746 mmHg 50%
    02:00 +34°C° 0 mm 1 mps 746 mmHg 51%
    03:00 +34°C° 0 mm 1 mps 746 mmHg 51%
    04:00 +34°C° 0 mm 1 mps 746 mmHg 51%
    05:00 +35°C° 0 mm 2 mps 747 mmHg 48%
    06:00 +36°C° 0 mm 2 mps 747 mmHg 44%
    07:00 +37°C° 0 mm 3 mps 748 mmHg 41%
    08:00 +39°C° 0 mm 3 mps 748 mmHg 33%
    09:00 +42°C° 0 mm 4 mps 748 mmHg 25%
    10:00 +46°C° 0 mm 5 mps 748 mmHg 17%
    11:00 +46°C° 0 mm 5 mps 747 mmHg 17%
    12:00 +46°C° 0 mm 5 mps 747 mmHg 17%
    13:00 +46°C° 0 mm 5 mps 746 mmHg 17%
    14:00 +44°C° 0 mm 4 mps 746 mmHg 18%
    15:00 +44°C° 0 mm 3 mps 746 mmHg 19%
    16:00 +43°C° 0 mm 2 mps 745 mmHg 20%
    17:00 +41°C° 0 mm 2 mps 745 mmHg 21%
    18:00 +40°C° 0 mm 1 mps 745 mmHg 21%
    19:00 +39°C° 0 mm 1 mps 746 mmHg 22%
    20:00 +39°C° 0 mm 2 mps 746 mmHg 21%
    21:00 +39°C° 0 mm 2 mps 746 mmHg 19%
    22:00 +39°C° 0 mm 3 mps 746 mmHg 18%
    23:00 +39°C° 0 mm 3 mps 746 mmHg 25%

    Day after tomorrow, 30 May, Saturday

    Time Temperature Precipitation Wind Pressure Humidity
    00:00 +38°C° 0 mm 3 mps 746 mmHg 32%
    01:00 +38°C° 0 mm 3 mps 746 mmHg 39%
    02:00 +37°C° 0 mm 3 mps 746 mmHg 44%
    03:00 +36°C° 0 mm 3 mps 746 mmHg 48%
    04:00 +35°C° 0 mm 2 mps 745 mmHg 53%
    05:00 +36°C° 0 mm 3 mps 746 mmHg 50%
    06:00 +37°C° 0 mm 3 mps 746 mmHg 48%
    07:00 +37°C° 0 mm 4 mps 747 mmHg 46%
    08:00 +40°C° 0 mm 4 mps 747 mmHg 38%
    09:00 +42°C° 0 mm 4 mps 747 mmHg 31%
    10:00 +44°C° 0 mm 4 mps 747 mmHg 23%
    11:00 +46°C° 0 mm 5 mps 747 mmHg 21%
    12:00 +46°C° 0 mm 5 mps 747 mmHg 21%
    13:00 +46°C° 0 mm 5 mps 746 mmHg 21%
    14:00 +45°C° 0 mm 4 mps 746 mmHg 22%
    15:00 +44°C° 0 mm 4 mps 746 mmHg 23%
    16:00 +44°C° 0 mm 3 mps 745 mmHg 24%
    17:00 +42°C° 0 mm 3 mps 746 mmHg 26%
    18:00 +40°C° 0 mm 2 mps 746 mmHg 28%
    19:00 +39°C° 0 mm 2 mps 746 mmHg 30%
    20:00 +39°C° 0 mm 3 mps 747 mmHg 30%
    21:00 +40°C° 0 mm 4 mps 747 mmHg 30%
    22:00 +40°C° 0 mm 6 mps 748 mmHg 30%
    23:00 +39°C° 0 mm 5 mps 747 mmHg 32%

    31 May, Sunday

    Time Temperature Precipitation Wind Pressure Humidity
    00:00 +37°C° 0 mm 5 mps 747 mmHg 34%
    01:00 +37°C° 0 mm 5 mps 746 mmHg 36%
    02:00 +37°C° 0 mm 4 mps 746 mmHg 35%
    03:00 +37°C° 0 mm 3 mps 747 mmHg 35%
    04:00 +36°C° 0 mm 2 mps 747 mmHg 35%
    05:00 +37°C° 0 mm 2 mps 747 mmHg 35%
    06:00 +38°C° 0 mm 2 mps 748 mmHg 34%
    07:00 +38°C° 0 mm 3 mps 748 mmHg 34%
    08:00 +40°C° 0 mm 2 mps 748 mmHg 31%
    09:00 +42°C° 0 mm 2 mps 748 mmHg 28%
    10:00 +43°C° 0 mm 2 mps 749 mmHg 25%
    11:00 +45°C° 0 mm 2 mps 748 mmHg 24%
    12:00 +45°C° 0 mm 3 mps 748 mmHg 23%
    13:00 +45°C° 0 mm 4 mps 747 mmHg 23%
    14:00 +45°C° 0 mm 3 mps 747 mmHg 24%
    15:00 +44°C° 0 mm 3 mps 746 mmHg 25%
    16:00 +42°C° 0 mm 2 mps 746 mmHg 26%
    17:00 +41°C° 0 mm 2 mps 746 mmHg 28%
    18:00 +40°C° 0 mm 2 mps 746 mmHg 29%
    19:00 +39°C° 0 mm 3 mps 746 mmHg 30%
    20:00 +39°C° 0 mm 3 mps 746 mmHg 30%
    21:00 +39°C° 0 mm 2 mps 747 mmHg 29%
    22:00 +39°C° 0 mm 2 mps 747 mmHg 29%
    23:00 +38°C° 0 mm 2 mps 747 mmHg 31%

    1 June, Monday

    Time Temperature Precipitation Wind Pressure Humidity
    00:00 +37°C° 0 mm 3 mps 747 mmHg 34%
    01:00 +36°C° 0 mm 3 mps 747 mmHg 37%
    02:00 +36°C° 0 mm 3 mps 747 mmHg 38%
    03:00 +36°C° 0 mm 3 mps 746 mmHg 40%
    04:00 +36°C° 0 mm 3 mps 746 mmHg 41%
    05:00 +37°C° 0 mm 3 mps 747 mmHg 40%
    06:00 +38°C° 0 mm 3 mps 747 mmHg 39%
    07:00 +38°C° 0 mm 3 mps 747 mmHg 37%
    08:00 +40°C° 0 mm 2 mps 748 mmHg 33%
    09:00 +42°C° 0 mm 2 mps 748 mmHg 28%
    10:00 +44°C° 0 mm 1 mps 748 mmHg 24%
    11:00 +45°C° 0 mm 2 mps 748 mmHg 23%
    12:00 +46°C° 0 mm 3 mps 747 mmHg 23%
    13:00 +46°C° 0 mm 3 mps 747 mmHg 22%
    14:00 +46°C° 0 mm 3 mps 746 mmHg 23%
    15:00 +45°C° 0 mm 3 mps 746 mmHg 23%
    16:00 +45°C° 0 mm 3 mps 745 mmHg 24%
    17:00 +43°C° 0 mm 3 mps 745 mmHg 26%
    18:00 +42°C° 0 mm 3 mps 746 mmHg 29%
    19:00 +39°C° 0 mm 3 mps 746 mmHg 31%
    20:00 +39°C° 0 mm 2 mps 746 mmHg 31%
    21:00 +39°C° 0 mm 2 mps 746 mmHg 31%
    22:00 +38°C° 0 mm 2 mps 746 mmHg 31%
    23:00 +38°C° 0 mm 2 mps 746 mmHg 32%

    2 June, Tuesday

    Time Temperature Precipitation Wind Pressure Humidity
    00:00 +37°C° 0 mm 2 mps 746 mmHg 33%
    01:00 +35°C° 0 mm 1 mps 745 mmHg 34%
    02:00 +35°C° 0 mm 1 mps 745 mmHg 35%
    03:00 +35°C° 0 mm 1 mps 745 mmHg 36%
    04:00 +34°C° 0 mm 1 mps 745 mmHg 37%
    05:00 +36°C° 0 mm 1 mps 746 mmHg 35%
    06:00 +37°C° 0 mm 1 mps 746 mmHg 33%
    07:00 +39°C° 0 mm 1 mps 747 mmHg 31%
    08:00 +41°C° 0 mm 1 mps 747 mmHg 27%
    09:00 +43°C° 0 mm 1 mps 747 mmHg 23%
    10:00 +45°C° 0 mm 1 mps 747 mmHg 19%
    11:00 +46°C° 0 mm 2 mps 747 mmHg 20%
    12:00 +46°C° 0 mm 3 mps 746 mmHg 21%
    13:00 +47°C° 0 mm 4 mps 746 mmHg 22%
    14:00 +45°C° 0 mm 4 mps 746 mmHg 24%
    15:00 +44°C° 0 mm 4 mps 745 mmHg 26%
    16:00 +44°C° 0 mm 3 mps 745 mmHg 28%
    17:00 +42°C° 0 mm 3 mps 745 mmHg 34%
    18:00 +39°C° 0 mm 3 mps 745 mmHg 39%
    19:00 +37°C° 0 mm 2 mps 745 mmHg 44%
    20:00 +37°C° 0 mm 2 mps 745 mmHg 41%
    21:00 +37°C° 0 mm 2 mps 745 mmHg 38%
    22:00 +36°C° 0 mm 1 mps 745 mmHg 34%
    23:00 +36°C° 0 mm 1 mps 745 mmHg 34%
    Show more